CW5282 Weather Reports


Display with metric or nautical units.
time (UTC)temp
F
wind
direction
speed
MPH
gust
MPH
rain 1hr
in
rain 24hr
in
rain mn
in
humidity
%
barometer
mb
20210417061755 32 62 0.0 5.0 0.00 0.00 0.00 87 1015.8
20210417061539 32 46 0.0 0.0 0.00 0.00 0.00 87 1015.8
20210417061332 32 83 0.0 0.0 0.00 0.00 0.00 87 1015.8
20210417061118 32 58 0.0 0.0 0.00 0.00 0.00 87 1015.8
20210417060929 32 51 0.0 0.0 0.00 0.00 0.00 87 1015.8
20210417060725 32 68 0.0 0.0 0.00 0.00 0.00 87 1015.8
20210417060520 32 41 0.0 0.0 0.00 0.00 0.00 87 1015.8
20210417060307 32 60 0.0 0.0 0.00 0.00 0.00 87 1015.8
20210417060216 32 56 0.0 0.0 0.00 0.00 0.00 88 1015.8
20210417060129 32 70 0.0 0.0 0.00 0.00 0.00 88 1015.8
20210417060105 32 68 0.0 0.0 0.00 0.00 0.00 88 1015.8
20210417055826 32 58 0.0 0.0 0.00 0.00 0.00 88 1015.8
20210417055601 32 26 0.0 0.0 0.00 0.00 0.00 88 1015.8
20210417055222 32 58 0.0 0.0 0.00 0.00 0.00 88 1016.0
20210417054837 32 56 0.0 0.0 0.00 0.00 0.00 88 1016.0
20210417054628 32 51 0.0 0.0 0.00 0.00 0.00 88 1016.0
20210417054422 32 56 0.0 0.0 0.00 0.00 0.00 88 1016.0
20210417054218 32 25 0.0 1.0 0.00 0.00 0.00 88 1016.0
20210417054037 32 50 0.0 0.0 0.00 0.00 0.00 88 1016.0
20210417053833 32 87 0.0 0.0 0.00 0.00 0.00 88 1016.0
20210417053638 32 57 0.0 0.0 0.00 0.00 0.00 88 1016.0
20210417053418 32 75 0.0 0.0 0.00 0.00 0.00 88 1016.0
20210417053317 32 58 0.0 0.0 0.00 0.00 0.00 88 1016.0
20210417053159 32 63 0.0 0.0 0.00 0.00 0.00 88 1016.0
20210417053113 32 59 0.0 0.0 0.00 0.00 0.00 88 1016.0
20210417052959 32 61 0.0 1.0 0.00 0.00 0.00 88 1016.0
20210417052846 32 84 0.0 1.0 0.00 0.00 0.00 88 1016.0
20210417052636 32 51 0.0 0.0 0.00 0.00 0.00 88 1016.1
20210417052159 32 51 0.0 0.0 0.00 0.00 0.00 88 1016.1
20210417051740 32 82 0.0 0.0 0.00 0.00 0.00 88 1016.1
20210417051529 32 61 0.0 2.0 0.00 0.00 0.00 88 1016.1
20210417051320 32 51 0.0 0.0 0.00 0.00 0.00 88 1016.1
20210417051115 32 63 0.0 0.0 0.00 0.00 0.00 88 1016.1
20210417050912 32 63 0.0 0.0 0.00 0.00 0.00 88 1016.1
20210417050701 32 60 0.0 0.0 0.00 0.00 0.00 88 1016.1
20210417050451 32 39 0.0 5.0 0.00 0.00 0.00 88 1016.1
20210417050242 32 95 0.0 0.0 0.00 0.00 0.00 88 1016.1
20210417050043 32 52 0.0 8.0 0.00 0.00 0.00 88 1016.1
20210417045947 32 49 0.0 8.0 0.00 0.00 0.00 88 1016.1
20210417045918 32 41 0.0 0.0 0.00 0.00 0.00 88 1016.1
20210417045822 32 77 0.0 0.0 0.00 0.00 0.00 88 1016.1
20210417045712 32 72 0.0 0.0 0.00 0.00 0.00 88 1016.1
20210417045309 32 60 0.0 0.0 0.00 0.00 0.00 88 1016.1
20210417044853 32 80 0.0 0.0 0.00 0.00 0.00 88 1016.1
20210417044620 32 82 0.0 0.0 0.00 0.00 0.00 88 1016.1
20210417044341 32 60 0.0 6.0 0.00 0.00 0.00 88 1016.1
20210417044130 32 69 0.0 6.0 0.00 0.00 0.00 88 1016.1
20210417043933 32 58 0.0 6.0 0.00 0.00 0.00 88 1016.1
20210417043731 32 65 0.0 6.0 0.00 0.00 0.00 88 1016.1
20210417043529 32 77 0.0 9.0 0.00 0.00 0.00 88 1016.1
20210417043327 32 68 0.0 3.0 0.00 0.00 0.00 88 1016.1
20210417043123 32 74 0.0 0.0 0.00 0.00 0.00 87 1016.1
20210417042917 32 34 0.0 3.0 0.00 0.00 0.00 87 1016.1
20210417042824 32 71 0.0 0.0 0.00 0.00 0.00 87 1016.1
20210417042747 32 46 0.0 1.0 0.00 0.00 0.00 87 1016.1
20210417042542 32 65 0.0 0.0 0.00 0.00 0.00 87 1016.1
20210417042236 32 75 0.0 0.0 0.00 0.00 0.00 87 1016.3
20210417042027 32 82 0.0 0.0 0.00 0.00 0.00 87 1016.3
20210417041652 32 70 0.0 0.0 0.00 0.00 0.00 87 1016.3
20210417041442 32 56 0.0 5.0 0.00 0.00 0.00 87 1016.3
20210417041244 32 64 0.0 5.0 0.00 0.00 0.00 87 1016.3
20210417041045 32 18 0.0 0.0 0.00 0.00 0.00 87 1016.3
20210417040854 32 43 0.0 0.0 0.00 0.00 0.00 87 1016.3
20210417040636 32 44 0.0 9.0 0.00 0.00 0.00 87 1016.5
20210417040433 32 46 0.0 9.0 0.00 0.00 0.00 87 1016.5
20210417040234 32 50 0.0 0.0 0.00 0.00 0.00 87 1016.5
20210417040033 32 82 0.0 8.0 0.00 0.00 0.00 87 1016.5
20210417035822 32 70 0.0 1.0 0.00 0.00 0.00 87 1016.5
20210417035730 32 70 0.0 0.0 0.00 0.00 0.00 87 1016.5
20210417035529 32 25 0.0 0.0 0.00 0.00 0.00 87 1016.5
20210417035315 32 69 0.0 4.0 0.00 0.00 0.00 87 1016.5
20210417035033 32 74 0.0 1.0 0.00 0.00 0.00 87 1016.5
20210417034803 32 52 0.0 1.0 0.00 0.00 0.00 87 1016.5
20210417034536 32 84 0.0 5.0 0.00 0.00 0.00 87 1016.5
20210417034327 32 82 0.0 5.0 0.00 0.00 0.00 87 1016.5
20210417034120 32 70 0.0 8.0 0.00 0.00 0.00 87 1016.5
20210417033910 32 60 0.0 7.0 0.00 0.00 0.00 87 1016.5
20210417033713 32 20 0.0 7.0 0.00 0.00 0.00 87 1016.6
20210417033515 32 35 0.0 7.0 0.00 0.00 0.00 87 1016.6
20210417033259 32 63 0.0 7.0 0.00 0.00 0.00 87 1016.6
20210417033054 32 57 0.0 7.0 0.00 0.00 0.00 87 1016.6
20210417032853 32 35 0.0 0.0 0.00 0.00 0.00 87 1016.6
20210417032739 32 72 0.0 3.0 0.00 0.00 0.00 87 1016.6
20210417032549 32 74 0.0 3.0 0.00 0.00 0.00 88 1016.6
20210417032414 32 65 0.0 3.0 0.00 0.00 0.00 88 1016.6
20210417032143 32 41 0.0 0.0 0.00 0.00 0.00 88 1016.7
20210417031842 32 75 0.0 7.0 0.00 0.00 0.00 88 1016.7
20210417031627 32 58 0.0 0.0 0.00 0.00 0.00 88 1016.7
20210417031425 32 42 0.0 4.0 0.00 0.00 0.00 88 1016.7
20210417031214 32 54 0.0 0.0 0.00 0.00 0.00 88 1016.7
20210417031020 32 55 0.0 0.0 0.00 0.00 0.00 88 1016.7
20210417030808 32 75 0.0 0.0 0.00 0.00 0.00 88 1016.7
20210417030614 32 56 0.0 1.0 0.00 0.00 0.00 88 1016.9
20210417030359 32 37 0.0 0.0 0.00 0.00 0.00 88 1016.9
20210417030152 32 46 0.0 5.0 0.00 0.00 0.00 88 1016.9
20210417025944 32 76 0.0 5.0 0.00 0.00 0.00 88 1016.9
20210417025830 32 52 0.0 0.0 0.00 0.00 0.00 88 1016.9
20210417025739 32 65 0.0 0.0 0.00 0.00 0.00 88 1016.9
20210417025639 32 53 0.0 8.0 0.00 0.00 0.00 88 1016.9
20210417025350 32 77 0.0 0.0 0.00 0.00 0.00 89 1017.1
20210417025058 32 71 0.0 2.0 0.00 0.00 0.00 89 1017.1
20210417024742 32 59 0.0 0.0 0.00 0.00 0.00 89 1017.1
20210417024529 32 58 0.0 3.0 0.00 0.00 0.00 89 1017.1
20210417024316 32 75 0.0 7.0 0.00 0.00 0.00 89 1017.1
20210417024103 31 79 0.0 7.0 0.00 0.00 0.00 89 1017.1
20210417023859 31 57 0.0 0.0 0.00 0.00 0.00 89 1017.1
20210417023646 31 70 0.0 7.0 0.00 0.00 0.00 90 1017.2
20210417023439 31 50 0.0 7.0 0.00 0.00 0.00 90 1017.2
20210417023235 31 50 0.0 7.0 0.00 0.00 0.00 90 1017.2
20210417023028 31 63 0.0 2.0 0.00 0.00 0.00 90 1017.2
20210417022838 31 80 0.0 2.0 0.00 0.00 0.00 90 1017.2
20210417022824 31 58 0.0 2.0 0.00 0.00 0.00 90 1017.2
20210417022722 31 77 0.0 0.0 0.00 0.00 0.00 90 1017.2
20210417022515 31 75 0.0 1.0 0.00 0.00 0.00 90 1017.3
20210417022150 31 46 0.0 0.0 0.00 0.00 0.00 90 1017.3
20210417021844 31 89 0.0 2.0 0.00 0.00 0.00 90 1017.3
20210417021628 31 61 0.0 1.0 0.00 0.00 0.00 90 1017.3
20210417021352 31 70 0.0 0.0 0.00 0.00 0.00 89 1017.3
20210417021144 31 84 0.0 2.0 0.00 0.00 0.00 89 1017.3
20210417020940 31 55 0.0 2.0 0.00 0.00 0.00 89 1017.3
20210417020735 31 59 0.0 2.0 0.00 0.00 0.00 89 1017.3
20210417020535 31 53 0.0 0.0 0.00 0.00 0.00 89 1017.6
20210417020331 31 62 0.0 0.0 0.00 0.00 0.00 89 1017.6
20210417020124 31 63 0.0 0.0 0.00 0.00 0.00 89 1017.6
20210417015929 31 82 0.0 0.0 0.00 0.00 0.00 89 1017.6
20210417015853 31 84 0.0 0.0 0.00 0.00 0.00 89 1017.6
20210417015756 31 73 0.0 0.0 0.00 0.00 0.00 89 1017.6
20210417015553 31 61 0.0 0.0 0.00 0.00 0.00 89 1017.6
20210417015325 31 89 0.0 0.0 0.00 0.00 0.00 88 1017.7
20210417014951 32 71 0.0 0.0 0.00 0.00 0.00 88 1017.7
20210417014700 32 71 0.0 0.0 0.00 0.00 0.00 88 1017.7
20210417014510 32 39 0.0 1.0 0.00 0.00 0.00 88 1017.7
20210417014254 32 37 0.0 0.0 0.00 0.00 0.00 88 1017.7
20210417014051 32 91 0.0 0.0 0.00 0.00 0.00 88 1017.7
20210417013843 32 57 0.0 0.0 0.00 0.00 0.00 88 1017.7
20210417013637 32 79 0.0 0.0 0.00 0.00 0.00 88 1017.9
20210417013429 32 73 0.0 0.0 0.00 0.00 0.00 88 1017.9
20210417013226 32 64 0.0 0.0 0.00 0.00 0.00 88 1017.9
20210417013102 32 50 0.0 0.0 0.00 0.00 0.00 87 1017.9
20210417013028 32 63 0.0 0.0 0.00 0.00 0.00 87 1017.9
20210417012930 32 64 0.0 1.0 0.00 0.00 0.00 87 1017.9
20210417012851 32 53 0.0 0.0 0.00 0.00 0.00 87 1017.9
20210417012657 32 63 0.0 0.0 0.00 0.00 0.00 86 1018.2
20210417012131 32 71 0.0 0.0 0.00 0.00 0.00 86 1018.2
20210417011733 32 54 0.0 0.0 0.00 0.00 0.00 85 1018.2
20210417011529 32 72 0.0 0.0 0.00 0.00 0.00 85 1018.2
20210417011324 32 79 0.0 0.0 0.00 0.00 0.00 85 1018.2
20210417011129 32 51 0.0 0.0 0.00 0.00 0.00 84 1018.2
20210417010911 32 61 0.0 0.0 0.00 0.00 0.00 84 1018.2
20210417010704 32 77 0.0 0.0 0.00 0.00 0.00 83 1018.2
20210417010514 32 94 0.0 3.0 0.00 0.00 0.00 83 1018.2
20210417010309 32 72 0.0 0.0 0.00 0.00 0.00 83 1018.2
20210417010212 32 62 0.0 0.0 0.00 0.00 0.00 83 1018.2
20210417010127 32 49 0.0 0.0 0.00 0.00 0.00 82 1018.2
20210417010041 32 59 0.0 0.0 0.00 0.00 0.00 82 1018.2
20210417005850 32 70 0.0 0.0 0.00 0.00 0.00 82 1018.2
20210417005757 32 76 0.0 0.0 0.00 0.00 0.00 82 1018.2
20210417005429 32 45 0.0 11.0 0.00 0.00 0.00 82 1018.2
20210417005048 33 33 0.0 8.0 0.00 0.00 0.00 82 1018.2
20210417004643 33 48 0.0 8.0 0.00 0.00 0.00 82 1018.2
20210417004427 33 65 0.0 4.0 0.00 0.00 0.00 81 1018.2
20210417004216 33 80 0.0 3.0 0.00 0.00 0.00 82 1018.2
20210417004040 33 67 0.0 8.0 0.00 0.00 0.00 81 1018.2
20210417003818 33 81 0.0 4.0 0.00 0.00 0.00 81 1018.2
20210417003601 33 50 0.0 11.0 0.00 0.00 0.00 81 1018.2
20210417003420 33 65 0.0 11.0 0.00 0.00 0.00 81 1018.2
20210417003155 33 63 1.0 11.0 0.00 0.00 0.00 81 1018.2
20210417002951 33 44 1.0 11.0 0.00 0.00 0.00 81 1018.2
20210417002902 33 84 1.0 15.0 0.00 0.00 0.00 80 1018.2
20210417002831 33 113 1.0 15.0 0.00 0.00 0.00 81 1018.2
20210417002744 33 60 2.0 15.0 0.00 0.00 0.00 80 1018.2
20210417002558 33 84 1.0 15.0 0.00 0.00 0.00 80 1018.2
20210417002044 33 70 1.0 15.0 0.00 0.00 0.00 81 1018.2
20210417001723 33 46 2.0 15.0 0.00 0.00 0.00 81 1018.2
20210417001527 33 71 2.0 15.0 0.00 0.00 0.00 81 1018.2
20210417001316 33 51 2.0 15.0 0.00 0.00 0.00 81 1018.2
20210417001115 33 87 2.0 15.0 0.00 0.00 0.00 81 1018.2
20210417000910 33 96 1.0 15.0 0.00 0.00 0.00 81 1018.2
20210417000706 33 83 0.0 12.0 0.00 0.00 0.00 82 1018.2
20210417000550 33 105 0.0 12.0 0.00 0.00 0.00 82 1018.2
20210417000341 33 107 0.0 12.0 0.00 0.00 0.00 82 1018.2
20210417000158 33 120 0.0 1.0 0.00 0.00 0.00 82 1018.2
20210417000028 33 89 0.0 0.0 0.00 0.00 0.00 82 1018.2
20210416235936 33 98 0.0 0.0 0.00 0.00 0.00 81 1018.2
20210416235859 33 44 0.0 0.0 0.00 0.00 0.00 82 1018.2
20210416235728 33 91 0.0 2.0 0.00 0.00 0.00 82 1017.8
20210416235238 33 105 0.0 1.0 0.00 0.00 0.00 82 1017.8
20210416234846 33 62 0.0 0.0 0.00 0.00 0.00 82 1017.8
20210416234619 33 99 0.0 3.0 0.00 0.00 0.00 82 1017.8
20210416234400 33 55 0.0 4.0 0.00 0.00 0.00 82 1017.8
20210416234159 33 80 0.0 2.0 0.00 0.00 0.00 82 1017.8
20210416233951 33 70 0.0 0.0 0.00 0.00 0.00 82 1017.8
20210416233752 33 68 0.0 4.0 0.00 0.00 0.00 82 1017.8
20210416233545 33 83 0.0 2.0 0.00 0.00 0.00 82 1017.7
20210416233343 33 60 0.0 0.0 0.00 0.00 0.00 82 1017.7
20210416233132 33 79 0.0 0.0 0.00 0.00 0.00 81 1017.7
20210416232949 33 29 1.0 5.0 0.00 0.00 0.00 81 1017.7
20210416232918 33 89 1.0 5.0 0.00 0.00 0.00 81 1017.7
20210416232837 33 88 3.0 18.0 0.00 0.00 0.00 81 1017.7
20210416232726 33 68 4.0 18.0 0.00 0.00 0.00 81 1017.7
20210416232443 33 59 5.0 18.0 0.00 0.00 0.00 80 1017.4
20210416232025 33 71 7.0 18.0 0.00 0.00 0.00 80 1017.4
20210416231705 33 57 7.0 18.0 0.00 0.00 0.00 80 1017.4
20210416231537 33 80 6.0 18.0 0.00 0.00 0.00 80 1017.4
20210416231300 33 89 6.0 16.0 0.00 0.00 0.00 80 1017.4
20210416231105 33 83 4.0 16.0 0.00 0.00 0.00 80 1017.4
20210416230900 33 60 3.0 15.0 0.00 0.00 0.00 80 1017.4
20210416230702 33 53 2.0 15.0 0.00 0.00 0.00 80 1017.2
20210416230455 33 59 2.0 15.0 0.00 0.00 0.00 80 1017.2
20210416230307 33 94 1.0 10.0 0.00 0.00 0.00 80 1017.2
20210416230230 33 72 1.0 10.0 0.00 0.00 0.00 80 1017.2
20210416230113 33 49 0.0 10.0 0.00 0.00 0.00 80 1017.2
20210416230041 33 76 1.0 10.0 0.00 0.00 0.00 80 1017.2
20210416225902 33 46 1.0 1.0 0.00 0.00 0.00 80 1017.2
20210416225623 33 91 1.0 19.0 0.00 0.00 0.00 80 1017.2
20210416225318 33 84 1.0 19.0 0.00 0.00 0.00 80 1017.2
20210416224936 33 93 2.0 19.0 0.00 0.00 0.00 80 1017.2
20210416224619 34 86 2.0 19.0 0.00 0.00 0.00 80 1017.2
20210416224421 33 80 3.0 19.0 0.00 0.00 0.00 80 1017.2
20210416224204 33 52 5.0 19.0 0.00 0.00 0.00 80 1017.2
20210416224011 34 70 5.0 19.0 0.00 0.00 0.00 80 1017.2
20210416223756 34 86 4.0 19.0 0.00 0.00 0.00 80 1017.2
20210416223555 34 70 3.0 16.0 0.00 0.00 0.00 80 1017.0
20210416223345 34 58 1.0 14.0 0.00 0.00 0.00 80 1017.0
20210416223145 34 53 0.0 11.0 0.00 0.00 0.00 80 1017.0
20210416222958 34 26 1.0 5.0 0.00 0.00 0.00 80 1017.0
20210416222943 34 74 2.0 4.0 0.00 0.00 0.00 80 1017.0
20210416222920 34 68 4.0 17.0 0.00 0.00 0.00 80 1017.0
20210416222840 34 79 4.0 17.0 0.00 0.00 0.00 80 1017.0
20210416222645 34 55 4.0 17.0 0.00 0.00 0.00 80 1017.1
20210416222125 34 78 3.0 16.0 0.00 0.00 0.00 80 1017.1
20210416221705 34 77 2.0 17.0 0.00 0.00 0.00 80 1017.1
20210416221457 34 54 1.0 17.0 0.00 0.00 0.00 81 1017.1
20210416221253 34 96 1.0 17.0 0.00 0.00 0.00 81 1017.1
20210416221048 34 47 0.0 17.0 0.00 0.00 0.00 81 1017.1
20210416220839 34 58 1.0 17.0 0.00 0.00 0.00 81 1017.1
20210416220635 34 78 2.0 17.0 0.00 0.00 0.00 81 1017.1
20210416220430 34 73 3.0 17.0 0.00 0.00 0.00 81 1017.1
20210416220222 34 51 3.0 17.0 0.00 0.00 0.00 81 1017.1
20210416220122 34 65 4.0 17.0 0.00 0.00 0.00 80 1017.1
20210416220020 34 84 3.0 17.0 0.00 0.00 0.00 80 1017.1
20210416215943 34 83 1.0 12.0 0.00 0.00 0.00 80 1017.1
20210416215836 34 86 2.0 12.0 0.00 0.00 0.00 80 1017.1
20210416215640 34 84 2.0 12.0 0.00 0.00 0.00 80 1016.9
20210416215158 34 75 1.0 12.0 0.00 0.00 0.00 80 1016.9
20210416214825 34 89 2.0 12.0 0.00 0.00 0.00 80 1016.9
20210416214533 34 86 2.0 12.0 0.00 0.00 0.00 80 1016.9
20210416214319 34 100 1.0 6.0 0.00 0.00 0.00 80 1016.9
20210416214116 34 70 2.0 12.0 0.00 0.00 0.00 80 1016.9
20210416213915 34 60 1.0 12.0 0.00 0.00 0.00 80 1016.9
20210416213722 34 91 1.0 12.0 0.00 0.00 0.00 81 1016.7
20210416213504 34 99 1.0 12.0 0.00 0.00 0.00 81 1016.7
20210416213300 35 82 1.0 12.0 0.00 0.00 0.00 81 1016.7
20210416213054 35 95 1.0 12.0 0.00 0.00 0.00 82 1016.7
20210416212851 35 107 1.0 12.0 0.00 0.00 0.00 83 1016.7
20210416212824 34 93 1.0 8.0 0.00 0.00 0.00 84 1016.7
20210416212746 34 79 2.0 3.0 0.00 0.00 0.00 84 1016.7
20210416212700 34 76 3.0 17.0 0.00 0.00 0.00 84 1016.7
20210416212340 34 101 3.0 17.0 0.00 0.00 0.00 84 1016.7
20210416211938 34 92 3.0 17.0 0.00 0.00 0.00 85 1016.7
20210416211616 34 70 3.0 17.0 0.00 0.00 0.00 85 1016.7
20210416211400 34 84 3.0 17.0 0.00 0.00 0.00 85 1016.7
20210416211200 34 106 2.0 15.0 0.00 0.00 0.00 85 1016.7
20210416210957 34 100 2.0 15.0 0.00 0.00 0.00 85 1016.7
20210416210750 34 104 2.0 15.0 0.00 0.00 0.00 85 1016.7
20210416210552 34 75 2.0 15.0 0.00 0.00 0.00 85 1017.1
20210416210346 34 75 1.0 14.0 0.00 0.00 0.00 85 1017.1
20210416210136 35 91 1.0 14.0 0.00 0.00 0.00 85 1017.1
20210416205935 35 89 1.0 14.0 0.00 0.00 0.00 85 1017.1
20210416205740 34 87 3.0 14.0 0.00 0.00 0.00 85 1017.1
20210416205703 34 117 3.0 20.0 0.00 0.00 0.00 85 1017.1
20210416205446 34 108 4.0 20.0 0.00 0.00 0.00 85 1017.1
20210416205158 34 78 6.0 20.0 0.00 0.00 0.00 85 1017.1
20210416204912 34 94 6.0 20.0 0.00 0.00 0.00 85 1017.1
20210416204700 34 91 7.0 20.0 0.00 0.00 0.00 85 1017.1
20210416204457 34 89 6.0 20.0 0.00 0.00 0.00 85 1017.1
20210416204243 34 115 6.0 20.0 0.00 0.00 0.00 85 1017.1
20210416204033 34 82 5.0 20.0 0.00 0.00 0.00 85 1017.1
20210416203834 35 80 5.0 20.0 0.00 0.00 0.00 85 1017.1
20210416203619 35 84 3.0 20.0 0.00 0.00 0.00 85 1017.2
20210416203423 35 85 4.0 15.0 0.00 0.00 0.00 85 1017.2
20210416203221 35 79 5.0 15.0 0.00 0.00 0.00 85 1017.2
20210416203035 35 113 4.0 15.0 0.00 0.00 0.00 85 1017.2
20210416202912 35 93 3.0 15.0 0.00 0.00 0.00 85 1017.2
20210416202833 35 96 3.0 15.0 0.00 0.00 0.00 85 1017.2
20210416202729 35 101 3.0 15.0 0.00 0.00 0.00 85 1017.2
20210416202453 35 86 3.0 14.0 0.00 0.00 0.00 85 1017.2
20210416202121 35 109 3.0 14.0 0.00 0.00 0.00 85 1017.2
20210416201844 35 78 5.0 19.0 0.00 0.00 0.00 85 1017.2
20210416201550 35 103 5.0 19.0 0.00 0.00 0.00 85 1017.2
20210416201346 35 98 4.0 19.0 0.00 0.00 0.00 85 1017.2
20210416201140 35 99 3.0 19.0 0.00 0.00 0.00 85 1017.2
20210416200944 35 96 3.0 19.0 0.00 0.00 0.00 85 1017.2
20210416200740 35 107 3.0 17.0 0.00 0.00 0.00 85 1017.2
20210416200532 35 84 1.0 17.0 0.00 0.00 0.00 85 1017.2
20210416200330 35 101 2.0 17.0 0.00 0.00 0.00 85 1017.2
20210416200131 35 89 3.0 17.0 0.00 0.00 0.00 85 1017.2
20210416200104 35 79 4.0 13.0 0.00 0.00 0.00 85 1017.2
20210416200041 35 87 5.0 0.0 0.00 0.00 0.00 85 1017.2
20210416195945 35 107 5.0 19.0 0.00 0.00 0.00 86 1017.2
20210416195835 35 117 6.0 19.0 0.00 0.00 0.00 85 1017.2
20210416195700 35 110 6.0 19.0 0.00 0.00 0.00 85 1017.2
20210416195256 35 86 5.0 19.0 0.00 0.00 0.00 85 1017.2
20210416194811 35 72 6.0 18.0 0.00 0.00 0.00 85 1017.2
20210416194527 35 82 7.0 18.0 0.00 0.00 0.00 85 1017.2
20210416194255 35 95 6.0 18.0 0.00 0.00 0.00 85 1017.2
20210416194109 35 77 6.0 18.0 0.00 0.00 0.00 85 1017.2
20210416193848 35 94 5.0 17.0 0.00 0.00 0.00 85 1017.2
20210416193642 35 67 5.0 17.0 0.00 0.00 0.00 86 1017.3
20210416193532 35 100 5.0 17.0 0.00 0.00 0.00 86 1017.3
20210416193431 35 101 6.0 17.0 0.00 0.00 0.00 85 1017.3
20210416193328 35 74 6.0 19.0 0.00 0.00 0.00 85 1017.3
20210416193239 35 82 5.0 19.0 0.00 0.00 0.00 85 1017.3
20210416193157 35 86 5.0 19.0 0.00 0.00 0.00 85 1017.3
20210416193125 35 94 4.0 19.0 0.00 0.00 0.00 85 1017.3
20210416193017 35 94 4.0 19.0 0.00 0.00 0.00 86 1017.6
20210416192642 35 110 5.0 19.0 0.00 0.00 0.00 86 1017.6
20210416191901 35 94 6.0 19.0 0.00 0.00 0.00 86 1017.6
20210416191547 35 61 5.0 19.0 0.00 0.00 0.00 86 1017.6
20210416191338 35 100 6.0 19.0 0.00 0.00 0.00 86 1017.6
20210416191125 35 79 6.0 17.0 0.00 0.00 0.00 86 1017.6
20210416190921 35 90 5.0 17.0 0.00 0.00 0.00 87 1017.6
20210416190718 35 101 5.0 17.0 0.00 0.00 0.00 87 1017.7
20210416190515 35 78 6.0 17.0 0.00 0.00 0.00 86 1017.7
20210416190312 35 95 6.0 17.0 0.00 0.00 0.00 86 1017.7
20210416190144 35 105 6.0 17.0 0.00 0.00 0.00 86 1017.7
20210416190047 35 103 6.0 17.0 0.00 0.00 0.00 86 1017.7
20210416185839 35 101 6.0 17.0 0.00 0.00 0.00 86 1017.7
20210416185646 35 75 5.0 20.0 0.00 0.00 0.00 86 1017.7
20210416185259 35 101 3.0 20.0 0.00 0.00 0.00 85 1017.7
20210416185047 35 90 3.0 20.0 0.00 0.00 0.00 85 1017.7
20210416184838 35 89 4.0 20.0 0.00 0.00 0.00 86 1017.7
20210416184630 35 83 5.0 20.0 0.00 0.00 0.00 86 1017.7
20210416184420 35 92 7.0 20.0 0.00 0.00 0.00 86 1017.7
20210416184222 35 85 10.0 20.0 0.00 0.00 0.00 85 1017.7
20210416184020 35 99 9.0 20.0 0.00 0.00 0.00 85 1017.7
20210416183825 35 46 9.0 20.0 0.00 0.00 0.00 85 1017.7
20210416183618 35 82 8.0 20.0 0.00 0.00 0.00 85 1017.8
20210416183359 35 75 7.0 18.0 0.00 0.00 0.00 85 1017.8
20210416183159 35 110 5.0 18.0 0.00 0.00 0.00 85 1017.8
20210416183012 35 96 4.0 18.0 0.00 0.00 0.00 85 1017.8
20210416182928 36 58 4.0 18.0 0.00 0.00 0.00 85 1017.8
20210416182858 36 133 4.0 17.0 0.00 0.00 0.00 86 1017.8
20210416182801 35 86 5.0 17.0 0.00 0.00 0.00 86 1017.8
20210416182637 35 90 6.0 21.0 0.00 0.00 0.00 86 1018.1
20210416182153 35 85 7.0 21.0 0.00 0.00 0.00 86 1018.1
20210416181908 35 114 7.0 21.0 0.00 0.00 0.00 86 1018.1
20210416181534 35 104 7.0 21.0 0.00 0.00 0.00 86 1018.1
20210416181258 35 85 8.0 21.0 0.00 0.00 0.00 86 1018.1
20210416181104 35 98 8.0 21.0 0.00 0.00 0.00 86 1018.1
20210416180852 35 71 7.0 21.0 0.00 0.00 0.00 86 1018.1
20210416180646 35 110 6.0 21.0 0.00 0.00 0.00 85 1018.2
20210416180450 36 77 5.0 21.0 0.00 0.00 0.00 85 1018.2
20210416180238 36 94 4.0 18.0 0.00 0.00 0.00 85 1018.2
20210416180039 36 75 3.0 18.0 0.00 0.00 0.00 85 1018.2
20210416175830 36 73 3.0 18.0 0.00 0.00 0.00 85 1018.2
20210416175754 36 89 3.0 18.0 0.00 0.00 0.00 85 1018.2
20210416175659 36 99 3.0 18.0 0.00 0.00 0.00 85 1018.2
20210416175359 36 71 3.0 18.0 0.00 0.00 0.00 85 1018.2
20210416175118 36 114 4.0 17.0 0.00 0.00 0.00 86 1018.2
20210416174831 36 79 5.0 17.0 0.00 0.00 0.00 86 1018.2
20210416174619 36 98 5.0 17.0 0.00 0.00 0.00 85 1018.2
20210416174422 36 82 5.0 17.0 0.00 0.00 0.00 85 1018.2
20210416174208 36 96 5.0 17.0 0.00 0.00 0.00 85 1018.2
20210416173951 36 75 4.0 17.0 0.00 0.00 0.00 85 1018.2
20210416173750 36 82 3.0 17.0 0.00 0.00 0.00 85 1018.2
20210416173551 36 124 4.0 17.0 0.00 0.00 0.00 84 1018.2
20210416173343 36 100 3.0 18.0 0.00 0.00 0.00 85 1018.2
20210416173143 36 62 4.0 18.0 0.00 0.00 0.00 85 1018.2
20210416172945 36 88 4.0 18.0 0.00 0.00 0.00 85 1018.2
20210416172844 36 108 6.0 18.0 0.00 0.00 0.00 85 1018.2
20210416172820 36 81 7.0 18.0 0.00 0.00 0.00 85 1018.2
20210416172746 36 110 9.0 21.0 0.00 0.00 0.00 85 1018.2
20210416172538 36 129 8.0 21.0 0.00 0.00 0.00 85 1018.2
20210416172149 36 70 8.0 21.0 0.00 0.00 0.00 85 1018.2
20210416171750 36 98 7.0 21.0 0.00 0.00 0.00 85 1018.2
20210416171514 36 102 8.0 21.0 0.00 0.00 0.00 84 1018.2
20210416171308 36 113 7.0 21.0 0.00 0.00 0.00 85 1018.2
20210416171102 36 82 8.0 21.0 0.00 0.00 0.00 85 1018.2
20210416170855 36 134 9.0 21.0 0.00 0.00 0.00 85 1018.2
20210416170646 36 74 10.0 21.0 0.00 0.00 0.00 84 1018.2
20210416170456 36 80 10.0 20.0 0.00 0.00 0.00 85 1018.2
20210416170234 36 87 10.0 20.0 0.00 0.00 0.00 85 1018.2
20210416170106 36 96 8.0 20.0 0.00 0.00 0.00 84 1018.2
20210416170044 36 103 8.0 20.0 0.00 0.00 0.00 84 1018.2
20210416165939 36 77 6.0 20.0 0.00 0.00 0.00 84 1018.2
20210416165843 36 57 7.0 20.0 0.00 0.00 0.00 85 1018.2
20210416165649 36 83 9.0 20.0 0.00 0.00 0.00 85 1018.2
20210416165117 36 95 9.0 20.0 0.00 0.00 0.00 84 1018.2
20210416164837 36 82 10.0 21.0 0.00 0.00 0.00 85 1018.2
20210416164554 36 96 10.0 21.0 0.00 0.00 0.00 84 1018.2
20210416164345 36 63 10.0 21.0 0.00 0.00 0.00 84 1018.2
20210416164141 36 91 9.0 21.0 0.00 0.00 0.00 84 1018.2
20210416163932 37 98 8.0 21.0 0.00 0.00 0.00 84 1018.2
20210416163730 37 91 8.0 21.0 0.00 0.00 0.00 85 1018.2
20210416163530 36 79 8.0 21.0 0.00 0.00 0.00 85 1018.3
20210416163328 37 93 6.0 21.0 0.00 0.00 0.00 85 1018.3
20210416163123 36 76 7.0 21.0 0.00 0.00 0.00 85 1018.3
20210416162914 36 87 7.0 21.0 0.00 0.00 0.00 85 1018.3
20210416162738 37 114 7.0 21.0 0.00 0.00 0.00 86 1018.3
20210416162718 36 65 9.0 21.0 0.00 0.00 0.00 86 1018.3
20210416162542 36 114 8.0 21.0 0.00 0.00 0.00 86 1018.3
20210416162228 36 115 7.0 21.0 0.00 0.00 0.00 86 1018.5
20210416161912 36 87 8.0 21.0 0.00 0.00 0.00 85 1018.5
20210416161636 37 88 7.0 19.0 0.00 0.00 0.00 86 1018.5
20210416161429 37 104 6.0 19.0 0.00 0.00 0.00 86 1018.5
20210416161228 36 105 7.0 19.0 0.00 0.00 0.00 86 1018.5
20210416161026 36 99 8.0 19.0 0.00 0.00 0.00 86 1018.5
20210416160822 36 105 7.0 19.0 0.00 0.00 0.00 87 1018.5
20210416160616 36 94 7.0 24.0 0.00 0.00 0.00 87 1018.6
20210416160425 36 80 7.0 24.0 0.00 0.00 0.00 87 1018.6
20210416160201 36 89 7.0 24.0 0.00 0.00 0.00 88 1018.6
20210416160024 36 98 7.0 24.0 0.00 0.00 0.00 88 1018.6
20210416155941 36 72 9.0 24.0 0.00 0.00 0.00 87 1018.6
20210416155908 36 86 10.0 24.0 0.00 0.00 0.00 87 1018.6
20210416155821 36 65 11.0 24.0 0.00 0.00 0.00 87 1018.6
20210416155452 36 78 10.0 24.0 0.00 0.00 0.00 86 1018.4
20210416155059 36 103 10.0 24.0 0.00 0.00 0.00 86 1018.4
20210416154751 36 75 9.0 23.0 0.00 0.00 0.00 85 1018.4
20210416154527 36 117 8.0 20.0 0.00 0.00 0.00 85 1018.4
20210416154319 36 82 8.0 21.0 0.00 0.00 0.00 85 1018.4
20210416154123 36 86 8.0 21.0 0.00 0.00 0.00 84 1018.4
20210416153914 36 91 9.0 21.0 0.00 0.00 0.00 85 1018.4
20210416153706 36 81 8.0 21.0 0.00 0.00 0.00 84 1018.4
20210416153507 36 79 7.0 21.0 0.00 0.00 0.00 84 1018.4
20210416153300 36 86 6.0 22.0 0.00 0.00 0.00 85 1018.4
20210416153050 36 62 5.0 22.0 0.00 0.00 0.00 85 1018.4
20210416152844 36 89 6.0 22.0 0.00 0.00 0.00 85 1018.4
20210416152732 36 89 7.0 22.0 0.00 0.00 0.00 85 1018.4
20210416152710 36 87 8.0 22.0 0.00 0.00 0.00 85 1018.4
20210416152528 36 97 10.0 22.0 0.00 0.00 0.00 85 1018.4
20210416152142 36 62 9.0 22.0 0.00 0.00 0.00 85 1018.6
20210416151858 36 74 8.0 22.0 0.00 0.00 0.00 85 1018.6
20210416151622 36 53 9.0 22.0 0.00 0.00 0.00 85 1018.6
20210416151420 36 58 9.0 22.0 0.00 0.00 0.00 85 1018.6
20210416151220 36 105 10.0 22.0 0.00 0.00 0.00 86 1018.6
20210416151038 36 79 12.0 22.0 0.00 0.00 0.00 85 1018.6
20210416150816 36 101 12.0 23.0 0.00 0.00 0.00 85 1018.6
20210416150556 36 61 12.0 23.0 0.00 0.00 0.00 85 1018.5
20210416150425 36 103 10.0 23.0 0.00 0.00 0.00 85 1018.5
20210416150332 36 41 9.0 23.0 0.00 0.00 0.00 84 1018.5
20210416150230 36 50 8.0 23.0 0.00 0.00 0.00 84 1018.5
20210416150126 36 57 7.0 24.0 0.00 0.00 0.00 84 1018.5
20210416145929 36 91 7.0 24.0 0.00 0.00 0.00 85 1018.5
20210416145843 36 84 7.0 24.0 0.00 0.00 0.00 84 1018.5
20210416145829 36 79 7.0 24.0 0.00 0.00 0.00 84 1018.7
20210416145127 36 73 8.0 24.0 0.00 0.00 0.00 84 1018.7
20210416144741 36 107 7.0 24.0 0.00 0.00 0.00 84 1018.7
20210416144516 36 109 6.0 24.0 0.00 0.00 0.00 84 1018.7
20210416144257 36 110 7.0 24.0 0.00 0.00 0.00 84 1018.7
20210416144049 37 65 6.0 24.0 0.00 0.00 0.00 83 1018.7
20210416143850 37 96 5.0 20.0 0.00 0.00 0.00 84 1018.7
20210416143652 37 112 5.0 19.0 0.00 0.00 0.00 84 1018.6
20210416143438 36 103 5.0 19.0 0.00 0.00 0.00 84 1018.6
20210416143240 36 64 5.0 19.0 0.00 0.00 0.00 84 1018.6
20210416143028 36 75 5.0 19.0 0.00 0.00 0.00 84 1018.6
20210416142926 36 89 4.0 19.0 0.00 0.00 0.00 84 1018.6
20210416142859 36 89 5.0 19.0 0.00 0.00 0.00 84 1018.6
20210416142828 36 91 4.0 19.0 0.00 0.00 0.00 84 1018.6
20210416142704 37 63 4.0 19.0 0.00 0.00 0.00 84 1018.7
20210416142229 37 46 3.0 19.0 0.00 0.00 0.00 84 1018.7
20210416141838 36 105 5.0 19.0 0.00 0.00 0.00 84 1018.7
20210416141548 36 82 4.0 19.0 0.00 0.00 0.00 84 1018.7
20210416141342 36 100 4.0 18.0 0.00 0.00 0.00 85 1018.7
20210416141142 36 37 5.0 18.0 0.00 0.00 0.00 85 1018.7
20210416140946 36 88 5.0 18.0 0.00 0.00 0.00 85 1018.7
20210416140736 36 112 5.0 18.0 0.00 0.00 0.00 85 1018.7
20210416140536 36 98 6.0 18.0 0.00 0.00 0.00 85 1018.8
20210416140332 36 60 4.0 18.0 0.00 0.00 0.00 85 1018.8
20210416140244 36 73 4.0 17.0 0.00 0.00 0.00 85 1018.8
20210416140125 36 72 5.0 19.0 0.00 0.00 0.00 85 1018.8
20210416140043 36 101 5.0 19.0 0.00 0.00 0.00 85 1018.8
20210416135948 36 52 5.0 19.0 0.00 0.00 0.00 85 1018.8
20210416135852 36 91 6.0 19.0 0.00 0.00 0.00 85 1018.8
20210416135732 36 90 6.0 19.0 0.00 0.00 0.00 85 1018.8
20210416135137 36 98 5.0 19.0 0.00 0.00 0.00 85 1018.8
20210416134720 36 104 5.0 19.0 0.00 0.00 0.00 85 1018.8
20210416134523 36 65 6.0 19.0 0.00 0.00 0.00 85 1018.8
20210416134254 36 72 6.0 19.0 0.00 0.00 0.00 84 1018.8
20210416134216 36 65 5.0 19.0 0.00 0.00 0.00 84 1018.8
20210416133851 36 56 5.0 16.0 0.00 0.00 0.00 84 1018.8
20210416133657 36 53 4.0 16.0 0.00 0.00 0.00 84 1018.8
20210416133452 36 84 5.0 16.0 0.00 0.00 0.00 84 1018.8
20210416133233 36 89 4.0 19.0 0.00 0.00 0.00 84 1018.8
20210416133046 36 53 3.0 19.0 0.00 0.00 0.00 84 1018.8
20210416132900 36 52 3.0 19.0 0.00 0.00 0.00 84 1018.8
20210416132840 36 68 3.0 19.0 0.00 0.00 0.00 84 1018.8
20210416132752 36 82 4.0 19.0 0.00 0.00 0.00 84 1018.8
20210416132648 36 99 6.0 19.0 0.00 0.00 0.00 84 1018.6
20210416132244 36 73 6.0 19.0 0.00 0.00 0.00 84 1018.6
20210416131901 36 125 6.0 19.0 0.00 0.00 0.00 84 1018.6
20210416131609 36 99 7.0 19.0 0.00 0.00 0.00 84 1018.6
20210416131359 36 78 6.0 19.0 0.00 0.00 0.00 84 1018.6
20210416131155 36 80 6.0 18.0 0.00 0.00 0.00 84 1018.6
20210416130955 36 120 7.0 18.0 0.00 0.00 0.00 84 1018.6
20210416130755 36 108 6.0 18.0 0.00 0.00 0.00 83 1018.6
20210416130544 37 94 4.0 17.0 0.00 0.00 0.00 83 1018.4
20210416130336 37 87 4.0 16.0 0.00 0.00 0.00 83 1018.4
20210416130133 37 89 2.0 15.0 0.00 0.00 0.00 83 1018.4
20210416125926 37 79 2.0 10.0 0.00 0.00 0.00 84 1018.4
20210416125708 36 82 5.0 17.0 0.00 0.00 0.00 85 1018.2
20210416125332 36 67 5.0 15.0 0.00 0.00 0.00 85 1018.2
20210416124737 36 92 5.0 19.0 0.00 0.00 0.00 85 1018.2
20210416124458 36 69 6.0 19.0 0.00 0.00 0.00 85 1018.2
20210416124254 36 78 7.0 19.0 0.00 0.00 0.00 85 1018.2
20210416124053 36 108 6.0 19.0 0.00 0.00 0.00 85 1018.2
20210416123845 36 108 6.0 19.0 0.00 0.00 0.00 85 1018.2
20210416123635 36 48 5.0 19.0 0.00 0.00 0.00 85 1018.2
20210416123434 36 47 6.0 19.0 0.00 0.00 0.00 85 1018.2
20210416123227 36 60 6.0 19.0 0.00 0.00 0.00 85 1018.2
20210416123033 36 51 6.0 19.0 0.00 0.00 0.00 85 1018.2
20210416122820 36 75 5.0 17.0 0.00 0.00 0.00 85 1018.2
20210416122654 36 70 3.0 17.0 0.00 0.00 0.00 85 1018.3
20210416122135 36 63 4.0 17.0 0.00 0.00 0.00 85 1018.3
20210416121757 36 64 4.0 18.0 0.00 0.00 0.00 85 1018.3
20210416121541 36 82 4.0 18.0 0.00 0.00 0.00 85 1018.3
20210416121336 36 67 5.0 18.0 0.00 0.00 0.00 85 1018.3
20210416121149 36 73 5.0 18.0 0.00 0.00 0.00 85 1018.3
20210416120924 36 79 5.0 18.0 0.00 0.00 0.00 86 1018.3
20210416120716 36 85 7.0 18.0 0.00 0.00 0.00 86 1018.3
20210416120519 36 63 6.0 18.0 0.00 0.00 0.00 86 1018.3
20210416120301 36 43 5.0 18.0 0.00 0.00 0.00 86 1018.3
20210416120114 36 64 5.0 18.0 0.00 0.00 0.00 86 1018.3
20210416115855 36 65 6.0 18.0 0.00 0.00 0.00 86 1018.3
20210416115825 36 46 7.0 18.0 0.00 0.00 0.00 86 1018.3
20210416115623 36 58 7.0 18.0 0.00 0.00 0.00 86 1018.5
20210416115029 36 84 7.0 18.0 0.00 0.00 0.00 86 1018.5
20210416114638 36 52 7.0 18.0 0.00 0.00 0.00 87 1018.5
20210416114427 36 55 6.0 18.0 0.00 0.00 0.00 87 1018.5
20210416114229 36 51 5.0 18.0 0.00 0.00 0.00 87 1018.5
20210416114024 36 69 5.0 18.0 0.00 0.00 0.00 87 1018.5
20210416113822 36 73 4.0 18.0 0.00 0.00 0.00 87 1018.5
20210416113611 36 76 4.0 18.0 0.00 0.00 0.00 87 1018.7
20210416113416 36 60 4.0 18.0 0.00 0.00 0.00 87 1018.7
20210416113151 36 50 4.0 18.0 0.00 0.00 0.00 87 1018.7
20210416112942 36 77 3.0 17.0 0.00 0.00 0.00 87 1018.7
20210416112822 36 58 3.0 17.0 0.00 0.00 0.00 87 1018.7
20210416112752 36 77 2.0 17.0 0.00 0.00 0.00 87 1018.7
20210416112646 36 75 2.0 17.0 0.00 0.00 0.00 87 1018.7
20210416112332 35 65 2.0 16.0 0.00 0.00 0.00 87 1018.6
20210416112031 35 55 2.0 16.0 0.00 0.00 0.00 87 1018.6
20210416111703 35 75 2.0 14.0 0.00 0.00 0.00 87 1018.6
20210416111453 35 75 1.0 14.0 0.00 0.00 0.00 87 1018.6
20210416111248 35 60 1.0 14.0 0.00 0.00 0.00 87 1018.6
20210416111040 35 86 2.0 14.0 0.00 0.00 0.00 87 1018.6
20210416110835 35 57 2.0 0.0 0.00 0.00 0.00 87 1018.6
20210416110636 35 81 2.0 3.0 0.00 0.00 0.00 87 1018.3
20210416110427 35 54 2.0 15.0 0.00 0.00 0.00 87 1018.3
20210416110222 35 74 2.0 15.0 0.00 0.00 0.00 87 1018.3
20210416110042 35 80 1.0 15.0 0.00 0.00 0.00 87 1018.3
20210416105951 35 41 1.0 13.0 0.00 0.00 0.00 87 1018.3
20210416105906 35 46 1.0 13.0 0.00 0.00 0.00 87 1018.3
20210416105822 35 84 1.0 13.0 0.00 0.00 0.00 87 1018.3
20210416105548 35 45 2.0 13.0 0.00 0.00 0.00 87 1018.2
20210416105127 35 79 2.0 16.0 0.00 0.00 0.00 87 1018.2
20210416104824 35 56 2.0 16.0 0.00 0.00 0.00 87 1018.2
20210416104541 35 51 3.0 16.0 0.00 0.00 0.00 87 1018.2
20210416104341 35 41 3.0 16.0 0.00 0.00 0.00 87 1018.2
20210416104141 35 51 4.0 16.0 0.00 0.00 0.00 87 1018.2
20210416103942 35 70 4.0 16.0 0.00 0.00 0.00 87 1018.2
20210416103735 35 22 4.0 16.0 0.00 0.00 0.00 87 1018.2
20210416103524 35 39 4.0 16.0 0.00 0.00 0.00 87 1018.2
20210416103318 35 34 5.0 16.0 0.00 0.00 0.00 87 1018.2
20210416103156 35 80 5.0 15.0 0.00 0.00 0.00 87 1018.2
20210416103100 35 56 5.0 15.0 0.00 0.00 0.00 87 1018.2
20210416102959 35 76 4.0 15.0 0.00 0.00 0.00 87 1018.2
20210416102905 35 55 3.0 15.0 0.00 0.00 0.00 87 1018.2
20210416102830 35 37 2.0 15.0 0.00 0.00 0.00 87 1018.2
20210416102627 35 39 1.0 15.0 0.00 0.00 0.00 87 1018.1
20210416102035 35 19 0.0 15.0 0.00 0.00 0.00 87 1018.1
20210416101639 35 77 0.0 13.0 0.00 0.00 0.00 87 1018.1
20210416101439 35 65 0.0 13.0 0.00 0.00 0.00 87 1018.1
20210416101223 35 43 0.0 11.0 0.00 0.00 0.00 87 1018.1
20210416101022 35 41 1.0 11.0 0.00 0.00 0.00 87 1018.1
20210416100815 35 39 3.0 11.0 0.00 0.00 0.00 87 1018.1
20210416100609 35 92 3.0 11.0 0.00 0.00 0.00 87 1017.9
20210416100358 35 74 3.0 9.0 0.00 0.00 0.00 87 1017.9
20210416100208 35 62 3.0 14.0 0.00 0.00 0.00 87 1017.9
20210416095953 35 50 1.0 14.0 0.00 0.00 0.00 87 1017.9
20210416095854 35 65 1.0 12.0 0.00 0.00 0.00 87 1017.9
20210416095829 35 75 1.0 10.0 0.00 0.00 0.00 87 1017.9
20210416095732 36 63 1.0 15.0 0.00 0.00 0.00 87 1017.9
20210416095531 36 70 1.0 15.0 0.00 0.00 0.00 87 1017.7
20210416095137 36 79 2.0 15.0 0.00 0.00 0.00 87 1017.7
20210416094755 36 75 2.0 10.0 0.00 0.00 0.00 87 1017.7
20210416094531 36 4 1.0 2.0 0.00 0.00 0.00 87 1017.7
20210416094322 36 76 3.0 14.0 0.00 0.00 0.00 87 1017.7
20210416094117 36 65 3.0 14.0 0.00 0.00 0.00 87 1017.7
20210416093905 36 65 3.0 13.0 0.00 0.00 0.00 87 1017.7
20210416093704 36 39 3.0 12.0 0.00 0.00 0.00 87 1017.6
20210416093454 36 77 2.0 12.0 0.00 0.00 0.00 87 1017.6
20210416093252 36 53 2.0 12.0 0.00 0.00 0.00 87 1017.6
20210416093047 36 63 1.0 12.0 0.00 0.00 0.00 87 1017.6
20210416092919 36 69 1.0 8.0 0.00 0.00 0.00 87 1017.6
20210416092844 36 53 1.0 13.0 0.00 0.00 0.00 87 1017.6
20210416092556 36 78 0.0 6.0 0.00 0.00 0.00 87 1017.6
20210416092335 36 34 1.0 6.0 0.00 0.00 0.00 87 1017.6
20210416092055 36 70 1.0 6.0 0.00 0.00 0.00 87 1017.4
20210416091820 36 64 1.0 6.0 0.00 0.00 0.00 87 1017.4
20210416091616 36 74 1.0 0.0 0.00 0.00 0.00 87 1017.4
20210416091412 36 25 1.0 15.0 0.00 0.00 0.00 87 1017.4
20210416091215 36 58 0.0 15.0 0.00 0.00 0.00 87 1017.4
20210416091020 36 57 1.0 15.0 0.00 0.00 0.00 87 1017.4
20210416090809 36 64 2.0 15.0 0.00 0.00 0.00 87 1017.4
20210416090614 36 53 2.0 15.0 0.00 0.00 0.00 87 1017.2
20210416090417 36 49 2.0 0.0 0.00 0.00 0.00 87 1017.2
20210416090156 36 55 2.0 16.0 0.00 0.00 0.00 87 1017.2
20210416085947 36 64 2.0 16.0 0.00 0.00 0.00 87 1017.2
20210416085849 36 52 1.0 15.0 0.00 0.00 0.00 87 1017.2
20210416085759 36 58 0.0 15.0 0.00 0.00 0.00 87 1017.2
20210416085717 36 64 0.0 15.0 0.00 0.00 0.00 87 1017.2
20210416085450 36 76 0.0 15.0 0.00 0.00 0.00 87 1017.1
20210416085105 36 58 0.0 15.0 0.00 0.00 0.00 87 1017.1
20210416084741 36 71 0.0 4.0 0.00 0.00 0.00 87 1017.1
20210416084519 36 75 1.0 4.0 0.00 0.00 0.00 87 1017.1
20210416084312 36 89 1.0 4.0 0.00 0.00 0.00 87 1017.1
20210416084102 36 60 1.0 0.0 0.00 0.00 0.00 87 1017.1
20210416083852 36 42 1.0 0.0 0.00 0.00 0.00 87 1017.1
20210416083657 36 55 1.0 13.0 0.00 0.00 0.00 87 1017.1
20210416083453 36 56 0.0 13.0 0.00 0.00 0.00 87 1017.1
20210416083241 36 53 1.0 13.0 0.00 0.00 0.00 87 1017.1
20210416083046 36 67 1.0 13.0 0.00 0.00 0.00 87 1017.1
20210416082921 36 52 0.0 13.0 0.00 0.00 0.00 87 1017.1
20210416082850 36 81 1.0 13.0 0.00 0.00 0.00 87 1017.1
20210416082757 36 27 1.0 12.0 0.00 0.00 0.00 87 1017.1
20210416082512 36 37 1.0 12.0 0.00 0.00 0.00 88 1017.0
20210416082045 36 78 1.0 12.0 0.00 0.00 0.00 88 1017.0
20210416081824 36 39 1.0 12.0 0.00 0.00 0.00 88 1017.0
20210416081608 35 72 1.0 12.0 0.00 0.00 0.00 88 1017.0
20210416081350 36 44 1.0 14.0 0.00 0.00 0.00 88 1017.0
20210416081141 35 53 1.0 14.0 0.00 0.00 0.00 88 1017.0
20210416080942 35 39 2.0 14.0 0.00 0.00 0.00 88 1017.0
20210416080740 35 20 2.0 14.0 0.00 0.00 0.00 88 1017.0
20210416080541 35 34 1.0 14.0 0.00 0.00 0.00 88 1016.9
20210416080341 35 13 2.0 15.0 0.00 0.00 0.00 88 1016.9
20210416080152 35 62 1.0 15.0 0.00 0.00 0.00 88 1016.9
20210416075937 35 65 1.0 15.0 0.00 0.00 0.00 88 1016.9
20210416075750 35 63 1.0 15.0 0.00 0.00 0.00 88 1016.9
20210416075722 35 84 1.0 12.0 0.00 0.00 0.00 88 1016.9
20210416075527 35 50 1.0 12.0 0.00 0.00 0.00 88 1016.9
20210416075326 35 68 0.0 12.0 0.00 0.00 0.00 88 1017.0
20210416075055 35 42 0.0 12.0 0.00 0.00 0.00 88 1017.0
20210416074724 35 50 0.0 12.0 0.00 0.00 0.00 88 1017.0
20210416074513 35 39 0.0 10.0 0.00 0.00 0.00 88 1017.0
20210416074257 35 32 0.0 10.0 0.00 0.00 0.00 88 1017.0
20210416074050 35 63 0.0 10.0 0.00 0.00 0.00 88 1017.0
20210416073848 35 23 0.0 10.0 0.00 0.00 0.00 88 1017.0
20210416073638 35 49 0.0 0.0 0.00 0.00 0.00 88 1016.9
20210416073433 35 22 1.0 15.0 0.00 0.00 0.00 88 1016.9
20210416073231 35 32 1.0 15.0 0.00 0.00 0.00 88 1016.9
20210416073044 35 58 1.0 15.0 0.00 0.00 0.00 88 1016.9
20210416072821 35 40 1.0 12.0 0.00 0.00 0.00 88 1016.9
20210416072646 35 46 0.0 12.0 0.00 0.00 0.00 88 1016.9
20210416072514 35 24 0.0 8.0 0.00 0.00 0.00 88 1016.9
20210416072256 35 37 0.0 8.0 0.00 0.00 0.00 88 1016.8
20210416072028 35 14 0.0 8.0 0.00 0.00 0.00 88 1016.8
20210416071802 35 60 0.0 8.0 0.00 0.00 0.00 88 1016.8
20210416071551 35 74 1.0 6.0 0.00 0.00 0.00 88 1016.8
20210416071351 35 20 1.0 6.0 0.00 0.00 0.00 88 1016.8
20210416071144 35 36 0.0 5.0 0.00 0.00 0.00 88 1016.8
20210416070939 35 46 1.0 11.0 0.00 0.00 0.00 88 1016.8
20210416070739 35 37 0.0 13.0 0.00 0.00 0.00 88 1016.8
20210416070543 35 46 0.0 13.0 0.00 0.00 0.00 88 1016.8
20210416070334 35 56 0.0 13.0 0.00 0.00 0.00 88 1016.8
20210416070133 35 63 0.0 13.0 0.00 0.00 0.00 88 1016.8
20210416065923 35 37 0.0 13.0 0.00 0.00 0.00 88 1016.8
20210416065720 35 65 0.0 13.0 0.00 0.00 0.00 88 1016.8
20210416065629 35 57 1.0 13.0 0.00 0.00 0.00 88 1016.8
20210416065431 35 52 1.0 13.0 0.00 0.00 0.00 88 1016.8
20210416065257 35 56 0.0 13.0 0.00 0.00 0.00 88 1016.8
20210416064955 35 22 0.0 13.0 0.00 0.00 0.00 88 1016.8
20210416064713 35 56 0.0 13.0 0.00 0.00 0.00 88 1016.8
20210416064512 35 64 1.0 13.0 0.00 0.00 0.00 88 1016.8
20210416064301 35 34 1.0 13.0 0.00 0.00 0.00 88 1016.8
20210416064103 35 46 1.0 13.0 0.00 0.00 0.00 88 1016.8
20210416063900 35 56 1.0 13.0 0.00 0.00 0.00 88 1016.8
20210416063656 35 46 0.0 13.0 0.00 0.00 0.00 88 1016.8
20210416063447 35 68 0.0 8.0 0.00 0.00 0.00 88 1016.8
20210416063248 35 39 0.0 5.0 0.00 0.00 0.00 88 1016.8
20210416063110 35 45 0.0 5.0 0.00 0.00 0.00 89 1016.8
20210416062931 35 46 1.0 12.0 0.00 0.00 0.00 88 1016.8
20210416062804 35 33 1.0 12.0 0.00 0.00 0.00 88 1016.8
20210416062719 35 82 1.0 12.0 0.00 0.00 0.00 88 1016.8
20210416062559 35 72 0.0 11.0 0.00 0.00 0.00 88 1016.8
20210416062229 35 55 1.0 11.0 0.00 0.00 0.00 88 1016.7